This demonstration page uses our WeatherBlox Daily Observations layout. Learn more.

Left ArrowRight Arrow

Hourly Observations for April 11, 2021

Temp ( °F °C ) Dew Point ( °F °C ) Humidity (%) Winds ( mph kmh ) Pressure ( in mb ) Visibility ( mi km ) Precip ( " mm )
12:11 am 00:11 Clear with Mist and Fog 51 10.6 50 10 96 96 Calm 29.51 999 1.5 2.41401 0 0
12:27 am 00:27 Clear with Mist and Fog 51 10.6 50 10 96 96 Calm 29.51 999 2 3.21868 0 0
12:36 am 00:36 Clear 52 11.1 51 10.6 97 97 Calm 29.51 999 10 16.0934 0 0
12:53 am 00:53 Clear 53 11.7 52 11.1 96 96 S 5 7 29.49 999 10 16.0934 0 0
1:53 am 01:53 Clear 53 11.7 48 8.9 83 83 S 3 6 29.47 998 10 16.0934 0 0
2:53 am 02:53 Clear 51 10.6 47 8.3 86 86 WSW 5 7 29.47 998 10 16.0934 0 0
3:53 am 03:53 Clear 49 9.4 45 7.2 86 86 SSW 5 7 29.46 998 10 16.0934 0 0
4:53 am 04:53 Mostly Cloudy 49 9.4 45 7.2 86 86 S 3 6 29.45 997 10 16.0934 0 0
5:53 am 05:53 Cloudy 53 11.7 43 6.1 69 69 SSW 9 15 29.45 997 10 16.0934 0 0
6:53 am 06:53 Cloudy 52 11.1 43 6.1 72 72 VRB 7 11 29.45 997 10 16.0934 0 0
7:53 am 07:53 Cloudy with Light Rain 51 10.6 45 7.2 80 80 VRB 5 7 29.45 997 10 16.0934 0.001 0.001
8:53 am 08:53 Cloudy 51 10.6 46 7.8 83 83 VRB 7 11 29.45 997 10 16.0934 0.02 0.508
9:53 am 09:53 Cloudy 52 11.1 46 7.8 80 80 SSW 8 13 29.44 997 10 16.0934 0.001 0.001
10:09 am 10:09 Cloudy 53 11.7 46 7.8 77 77 SSW 9 15 29.45 997 10 16.0934 0 0
10:53 am 10:53 Cloudy 53 11.7 46 7.8 77 77 SSW 7 11 29.44 997 10 16.0934 0 0
11:53 am 11:53 Cloudy with Light Rain 52 11.1 49 9.4 89 89 SW 6 9 29.46 998 8 12.87472 0.01 0.254
12:00 pm 12:00 Cloudy 52 11.1 48 8.9 86 86 SSW 8 13 29.47 998 10 16.0934 0.001 0.001
12:08 pm 12:08 Cloudy 52 11.1 47 8.3 83 83 SSW 8 13 29.47 998 10 16.0934 0.001 0.001
12:53 pm 12:53 Cloudy with Light Rain 52 11.1 45 7.2 77 77 SW 10 17 29.46 998 10 16.0934 0.001 0.001
1:07 pm 13:07 Cloudy 54 12.2 46 7.8 75 75 VRB 7 11 29.46 998 10 16.0934 0.001 0.001
1:18 pm 13:18 Cloudy 54 12.2 46 7.8 75 75 VRB 7 11 29.46 998 10 16.0934 0.001 0.001
1:29 pm 13:29 Cloudy 54 12.2 45 7.2 72 72 SSW 9 15 29.46 998 10 16.0934 0.001 0.001
1:44 pm 13:44 Cloudy 55 12.8 45 7.2 69 69 SW 9 15 29.46 998 10 16.0934 0.001 0.001
1:53 pm 13:53 Cloudy 55 12.8 45 7.2 69 69 SW 12 19 29.46 998 10 16.0934 0.001 0.001
2:53 pm 14:53 Cloudy 54 12.2 49 9.4 83 83 S 8 13 29.47 998 10 16.0934 0.01 0.254
3:53 pm 15:53 Cloudy 53 11.7 48 8.9 83 83 SW 8 13 29.48 998 10 16.0934 0.001 0.001
4:53 pm 16:53 Cloudy 54 12.2 47 8.3 77 77 SW 9 15 29.49 999 10 16.0934 0.001 0.001
5:53 pm 17:53 Cloudy 54 12.2 44 6.7 69 69 SW 8 13 29.51 999 10 16.0934 0 0
6:53 pm 18:53 Cloudy 53 11.7 44 6.7 72 72 WSW 8 13 29.53 1000 10 16.0934 0 0
7:19 pm 19:19 Cloudy 52 11.1 45 7.2 77 77 WSW 12 19 29.55 1001 10 16.0934 0 0
7:53 pm 19:53 Cloudy 52 11.1 44 6.7 75 75 WSW 13 20 29.55 1001 10 16.0934 0 0
8:16 pm 20:16 Cloudy 51 10.6 45 7.2 80 80 WSW 8 13 29.57 1001 10 16.0934 0 0
8:53 pm 20:53 Cloudy 51 10.6 44 6.7 77 77 W 7 11 29.57 1002 10 16.0934 0 0
9:53 pm 21:53 Cloudy 51 10.6 47 8.3 86 86 WSW 7 11 29.6 1002 10 16.0934 0 0
10:53 pm 22:53 Cloudy 51 10.6 45 7.2 80 80 WSW 6 9 29.61 1003 10 16.0934 0 0
11:53 pm 23:53 Cloudy 50 10 45 7.2 83 83 W 5 7 29.61 1003 10 16.0934 0 0

Powered by AerisWeather